Weather History for Pensacola NAS, FL

Change the Weather History Date:

Thursday, November 29, 2012

  Actual Average Record
Temperature  
Mean Temperature 52 °F -  
Max Temperature 63 °F 65 °F 78 °F (2001)
Min Temperature 42 °F 47 °F 30 °F (2003)
Degree Days  
Heating Degree Days 12    
Growing Degree Days 2 (Base 50)    
Moisture  
Dew Point 46 °F    
Average Humidity 84    
Maximum Humidity 100    
Minimum Humidity 60    
Precipitation  
Precipitation 0.00 in - - ()
Sea Level Pressure  
Sea Level Pressure 30.32 in    
Wind  
Wind Speed 6 mph (NE)    
Max Wind Speed 12 mph    
Max Gust Speed -    
Visibility 8 miles    
Events      
Averages and records for this station are not official NWS values.
T = Trace of Precipitation, MM = Missing Value Source: NWS Daily Summary

Daily Weather History Graph

Daily Weather History Graph

Search for Another Location

Airport:

Trip Planner

Search our weather history database for the weather conditions in past years. The results will help you decide how hot, cold, wet, or windy it might be!

Date:

Astronomy

Nov. 29, 2012 Rise Set
Actual Time 6:27 AM CST 4:48 PM CST
Civil Twilight 6:01 AM CST 5:14 PM CST
Nautical Twilight 5:31 AM CST 5:44 PM CST
Astronomical Twilight 5:02 AM CST 6:13 PM CST
Moon 5:51 PM CST (11/29) 7:13 AM CST (11/29)
Length of Visible Light 11h 13m
Length of Day
10h 21m
Full, 99% of the Moon is Illuminated
Nov 29
Full
Dec 6
Last Quarter
Dec 13
New
Dec 19
First Quarter
Dec 28
Full

Hourly Weather History & Observations

Time (CST) Temp. Windchill Dew Point Humidity Pressure Visibility Wind Dir Wind Speed Gust Speed Precip Events Conditions
12:56 AM 42.1 °F 39.2 °F 39.0 °F 89% 30.33 in 10.0 mi North 4.6 mph - N/A   Clear
1:56 AM 43.0 °F 39.5 °F 39.9 °F 89% 30.34 in 10.0 mi NNE 5.8 mph - N/A   Clear
2:56 AM 43.0 °F 40.3 °F 41.0 °F 93% 30.33 in 10.0 mi North 4.6 mph - N/A   Clear
3:56 AM 42.1 °F 39.2 °F 41.0 °F 96% 30.32 in 8.0 mi North 4.6 mph - N/A   Clear
4:56 AM 42.1 °F 40.2 °F 41.0 °F 96% 30.33 in 7.0 mi North 3.5 mph - 0.00 in   Clear
5:56 AM 42.1 °F 38.4 °F 41.0 °F 96% 30.34 in 6.0 mi NNE 5.8 mph - 0.00 in   Clear
6:23 AM 42.8 °F 38.0 °F 42.8 °F 100% 30.34 in 2.0 mi NNE 8.1 mph - N/A   Scattered Clouds
6:56 AM 44.1 °F 40.1 °F 43.0 °F 96% 30.35 in 2.0 mi NNE 6.9 mph - N/A   Partly Cloudy
7:40 AM 46.4 °F 44.3 °F 44.6 °F 93% 30.35 in 3.0 mi North 4.6 mph - N/A   Mostly Cloudy
7:56 AM 46.9 °F - 45.0 °F 93% 30.36 in 3.0 mi North 5.8 mph - N/A   Mostly Cloudy
8:56 AM 52.0 °F - 46.9 °F 83% 30.38 in 10.0 mi NNE 6.9 mph - N/A   Mostly Cloudy
9:56 AM 55.0 °F - 46.9 °F 74% 30.38 in 10.0 mi NE 8.1 mph - N/A   Mostly Cloudy
10:35 AM 57.2 °F - 46.4 °F 67% 30.37 in 10.0 mi ENE 10.4 mph - N/A   Mostly Cloudy
10:56 AM 57.9 °F - 46.9 °F 67% 30.37 in 10.0 mi ENE 11.5 mph - N/A   Mostly Cloudy
11:56 AM 61.0 °F - 48.9 °F 64% 30.34 in 10.0 mi ENE 8.1 mph - N/A   Mostly Cloudy
12:56 PM 62.1 °F - 50.0 °F 65% 30.30 in 10.0 mi East 6.9 mph - N/A   Partly Cloudy
1:56 PM 63.0 °F - 50.0 °F 63% 30.29 in 10.0 mi East 5.8 mph - N/A   Scattered Clouds
2:56 PM 63.0 °F - 48.9 °F 60% 30.28 in 10.0 mi East 8.1 mph - N/A   Partly Cloudy
3:56 PM 61.0 °F - 48.9 °F 64% 30.28 in 10.0 mi East 8.1 mph - N/A   Partly Cloudy
4:56 PM 55.0 °F - 48.0 °F 77% 30.28 in 10.0 mi ENE 4.6 mph - N/A   Scattered Clouds
5:56 PM 53.1 °F - 48.9 °F 86% 30.29 in 10.0 mi ENE 4.6 mph - N/A   Scattered Clouds
6:56 PM 50.0 °F - 48.0 °F 93% 30.29 in 10.0 mi North 3.5 mph - N/A   Clear
7:56 PM 46.9 °F - 46.0 °F 97% 30.31 in 9.0 mi Calm Calm - N/A   Scattered Clouds
8:56 PM 52.0 °F - 48.0 °F 86% 30.31 in 10.0 mi NNE 3.5 mph - N/A   Mostly Cloudy
9:56 PM 51.1 °F - 48.0 °F 89% 30.30 in 10.0 mi NE 5.8 mph - N/A   Scattered Clouds
10:56 PM 50.0 °F - 48.0 °F 93% 30.29 in 10.0 mi North 3.5 mph - N/A   Partly Cloudy
11:56 PM 51.1 °F - 48.0 °F 89% 30.28 in 10.0 mi NNE 3.5 mph - N/A   Clear